This demonstration page uses our WeatherBlox Daily Observations layout. Learn more.

Left ArrowRight Arrow

39.95238, -75.16362

Hourly Observations for September 27, 2022

Temp ( °F °C ) Dew Point ( °F °C ) Humidity (%) Winds ( mph kmh ) Pressure ( in mb ) Visibility ( mi km ) Precip ( " mm )
12:54 am 00:54 Mostly Cloudy 68 20 48 8.9 49 49 WSW 10 17 29.83 1010 10 16 0.00 0.00
1:54 am 01:54 Mostly Cloudy 67 19.4 45 7.2 45 45 W 9 15 29.83 1010 10 16 0.00 0.00
2:54 am 02:54 Mostly Cloudy 64 17.8 48 8.9 56 56 WSW 7 11 29.83 1010 10 16 0.00 0.00
3:54 am 03:54 Mostly Cloudy 65 18.3 47 8.3 52 52 W 9 15 29.82 1010 10 16 0.00 0.00
4:54 am 04:54 Mostly Cloudy 64 17.8 48 8.9 56 56 SW 7 11 29.84 1011 10 16 0.00 0.00
5:54 am 05:54 Mostly Cloudy 62 16.7 46 7.8 56 56 W 9 15 29.83 1010 10 16 0.00 0.00
6:54 am 06:54 Mostly Cloudy 62 16.7 50 10 65 65 WSW 8 13 29.84 1011 10 16 0.00 0.00
7:54 am 07:54 Partly Cloudy 62 16.7 50 10 65 65 SSW 9 15 29.86 1011 10 16 0.00 0.00
8:54 am 08:54 Mostly Sunny 65 18.3 49 9.4 56 56 WSW 14 22 29.88 1012 10 16 0.00 0.00
9:12 am 09:12 Mostly Sunny 66 18.9 47 8.3 50 50 W 17 28 29.88 1012 10 16 0.00 0.00
9:54 am 09:54 Mostly Sunny 66 18.9 45 7.2 47 47 W 16 26 29.89 1012 10 16 0.00 0.00
10:54 am 10:54 Mostly Sunny 69 20.6 46 7.8 44 44 WSW 14 22 29.89 1012 10 16 0.00 0.00
11:54 am 11:54 Mostly Sunny 70 21.1 44 6.7 39 39 WSW 13 20 29.89 1012 10 16 0.00 0.00
12:54 pm 12:54 Mostly Sunny 71 21.7 44 6.7 38 38 W 10 17 29.89 1012 10 16 0.00 0.00
1:54 pm 13:54 Partly Cloudy 73 22.8 43 6.1 34 34 WSW 12 19 29.88 1012 10 16 0.00 0.00
2:54 pm 14:54 Partly Cloudy 73 22.8 41 5 31 31 WNW 14 22 29.87 1012 10 16 0.00 0.00
3:54 pm 15:54 Partly Cloudy 73 22.8 40 4.4 30 30 W 16 26 29.88 1012 10 16 0.00 0.00
4:54 pm 16:54 Partly Cloudy 72 22.2 41 5 33 33 W 21 33 29.89 1012 10 16 0.00 0.00
5:54 pm 17:54 Partly Cloudy 71 21.7 42 5.6 35 35 W 14 22 29.91 1013 10 16 0.00 0.00
6:54 pm 18:54 Partly Cloudy 68 20 42 5.6 39 39 W 15 24 29.93 1014 10 16 0.00 0.00
7:54 pm 19:54 Mostly Clear 67 19.4 41 5 39 39 W 9 15 29.95 1014 10 16 0.00 0.00
8:54 pm 20:54 Clear 66 18.9 42 5.6 42 42 W 10 17 29.98 1015 10 16 0.00 0.00
9:54 pm 21:54 Clear 62 16.7 43 6.1 50 50 W 9 15 30.00 1016 10 16 0.00 0.00
10:54 pm 22:54 Clear 62 16.7 43 6.1 50 50 W 10 17 30.02 1017 10 16 0.00 0.00
11:54 pm 23:54 Clear 61 16.1 43 6.1 51 51 WNW 8 13 30.03 1017 10 16 0.00 0.00

Powered by AerisWeather